SCP
-0 -0 -0 -0 -0 -0 -0 -0 -0 0 0 0 0 -0 -0 -0 -0 -0 -0 -0 -0 -0 -0 -0 -0 -0 -0 -0 -0 -0 0 0 -0 -0 -0 -0 -0 -0 -0 -0 0 0 0
-0 -0 -0 -0 -0 -0 -0 -0 0 0 0 0 -0 -0 -0 -0 -0 -0 -0 -0 -0 -0 -0 -0 -0 -0 -0 -0 -0 -0 0 -0 -0 -0 -0 0 -0 -0 -0 -0 -0 -0 -0
-0 -0 -0 0 0 -0 0 -0 0 0 0 0 -0 -0 -0 -0 -0 -0 -0 -0 -0 -0 -0 -0 -0 -0 -0 -0 -0 0 -0 -0 -0 -0 -0 -0 -0 -0 -0 -0 -0 0 0
-0 -0 -0 0 0 0 -0 -0 0 0 0 0 -0 -0 -0 -0 -0 -0 -0 -0 -0 -0 -0 -0 -0 -0 -0 -0 -0 -0 -0 -0 -0 0 -0 -0 0 -0 0 0 -0 -0 -0
-0 -0 -0 0 0 0 0 0 0 0 0 0 0 0 -0 -0 -0 -0 -0 -0 -0 -0 -0 -0 -0 -0 -0 0 0 -0 -0 -0 -0 -0 -0 -0 0 0 0 -0 0 0 0
0 0 -0 -0 -0 0 0 0 0 0 0 0 0 0 0 0 -0 -0 -0 -0 -0 0 0 0 0 0 0 0 0 -0 -0 -0 0 -0 -0 -0 0 0 0 0 0 0 0
0 0 -0 0 -0 -0 0 0 0 0 0 0 0 0 0 0 0 -0 0 0 0 0 0 0 0 0 0 0 -0 -0 -0 -0 -0 -0 -0 -0 0 -0 0 0 0 0 0
0 0 0 0 0 0 -0 0 0 0 0 0 0 0 0 0 0 0 0 0 0 0 0 0 0 0 0 -0 -0 -0 -0 -0 -0 -0 -0 -0 0 0 -0 0 0 0 0
0 0 0 0 0 0 0 0 0 0 0 0 0 0 0 0 0 0 0 0 0 0 0 0 0 0 0 -0 -0 -0 -0 -0 -0 0 0 0 0 0 0 0 0 0 0
0 0 0 0 0 0 0 0 0 0 0 0 0 0 0 0 0 0 0 0 0 0 0 0 0 -0 -0 -0 -0 -0 -0 -0 0 0 0 0 0 0 0 0 0 0 0
0 0 0 0 0 0 0 0 0 0 0 0 0 0 0 0 0 0 0 0 0 0 0 -0 -0 -0 -0 -0 -0 -0 -0 0 0 0 0 0 0 0 0 0 0 0 0
0 0 0 0 0 0 0 0 0 0 0 0 0 0 0 0 0 0 0 0 0 0 0 -0 -0 -0 -0 -0 0 0 0 0 0 0 0 0 0 0 0 0 0 0 0
0 0 0 -0 0 0 0 0 0 0 0 0 0 0 0 0 0 0 0 0 0 0 0 0 0 -0 0 0 0 0 0 0 0 0 0 0 0 0 0 0 0 0 0
0 0 0 -0 -0 -0 0 0 0 0 0 0 0 0 0 0 0 0 0 0 0 0 0 0 0 0 0 0 0 0 0 0 0 0 0 0 0 0 0 0 0 0 0
0 0 0 0 -0 -0 0 0 0 0 0 0 0 0 0 0 0 0 0 0 0 0 0 0 0 0 0 0 0 0 0 0 0 0 0 0 0 0 0 0 0 0 0
0 0 0 0 0 0 0 0 0 0 0 0 0 0 0 0 0 0 0 0 0 0 0 0 0 0 0 0 0 0 0 0 0 0 0 0 0 0 0 0 0 0 0
0 0 0 0 0 0 0 0 0 0 0 0 0 0 0 0 0 0 0 0 0 0 0 0 0 0 0 0 0 0 0 0 0 0 0 0 0 0 0 0 0 0 0
0 0 0 0 0 0 0 0 0 0 0 0 0 0 0 0 0 0 0 0 0 0 0 0 0 0 0 0 0 0 0 0 0 0 0 0 0 0 0 0 0 0 0
0 0 0 0 0 0 0 0 0 0 0 0 0 0 0 0 0 0 0 0 0 0 0 0 0 0 0 0 0 0 0 0 0 0 0 0 0 0 0 0 0 0 0
0 0 0 0 0 0 0 0 0 0 0 0 0 0 0 0 0 0 0 0 0 0 0 0 0 0 0 0 0 0 0 0 0 0 0 0 0 0 0 0 0 0 0
0 0 0 0 0 0 0 0 0 0 0 0 0 0 0 0 0 0 0 0 0 0 0 0 0 0 0 0 0 0 0 0 0 0 0 0 0 0 0 0 0 0 0
0 0 0 0 0 0 0 0 0 0 0 0 0 0 0 0 0 0 0 0 0 0 0 0 0 0 0 0 0 0 0 0 0 0 0 0 0 0 0 0 0 0 0
0 0 0 0 0 0 0 0 0 0 0 0 0 0 0 0 0 0 0 0 0 0 0 0 0 0 0 0 0 0 0 0 0 0 0 0 0 0 0 0 0 0 0
0 0 0 0 0 0 0 0 0 0 0 0 0 0 0 0 0 0 0 0 0 0 0 0 0 0 0 0 0 0 0 0 0 0 0 0 0 0 0 0 0 0 0
0 0 0 0 0 0 0 0 0 0 0 0 0 0 0 0 0 0 0 0 0 0 0 0 0 0 0 0 0 0 0 0 0 0 0 0 0 0 0 0 0 0 0
0 1 1 0 0 0 0 0 0 0 0 1 1 0 0 0 0 0 0 0 0 0 0 0 0 0 0 0 0 0 0 0 0 0 0 0 0 0 0 0 0 0 0
Wind_Speed_500mb
30 36 35 29 24 23 29 30 31 39 35 29 27 29 25 22 15 10 6 4 6 14 22 24 23 25 25 28 29 29 29 30 32 33 30 31 31 29 28 32 27 23 21
42 39 38 31 27 29 32 33 37 39 34 29 33 30 23 17 9 4 5 7 9 17 20 22 23 26 26 26 26 27 29 32 33 35 37 30 31 29 28 27 27 20 25
42 42 40 34 33 32 34 35 38 37 30 28 26 20 16 9 4 3 6 15 15 17 21 22 22 25 24 24 24 24 26 28 31 40 35 15 22 26 22 20 18 14 20
43 42 43 39 38 35 35 35 38 32 32 33 25 18 14 7 1 4 11 17 18 18 19 22 21 20 20 22 22 22 22 23 23 30 19 17 17 20 20 19 19 17 17
41 42 44 41 38 38 38 37 38 34 32 27 22 17 13 7 3 3 14 16 17 18 17 19 19 18 18 19 19 19 19 19 19 22 14 16 10 14 15 15 15 14 13
39 41 45 43 41 40 39 38 38 28 27 24 21 18 14 9 5 3 16 16 17 14 15 16 16 15 15 15 15 15 15 15 19 10 10 11 6 9 11 11 10 10 10
40 38 46 43 41 42 41 37 33 28 25 23 21 20 17 12 11 14 13 14 18 14 13 13 12 11 11 11 11 11 11 11 13 7 7 7 8 8 8 9 9 9 10
39 39 47 42 40 41 40 38 34 31 27 25 24 23 21 19 20 23 15 15 16 12 9 9 8 7 6 6 6 6 7 7 9 6 6 6 8 9 9 9 10 12 13
38 36 41 44 41 40 37 35 32 28 25 25 25 23 22 19 24 30 20 15 12 11 9 6 4 3 2 2 2 2 3 4 4 6 7 8 10 12 12 13 13 13 14
39 38 41 41 44 45 39 35 31 24 21 21 22 23 21 18 22 21 18 15 12 11 9 7 5 4 3 4 6 6 6 6 6 8 10 13 14 14 15 15 15 16 17
41 42 41 44 37 39 41 38 34 28 22 19 21 22 21 13 15 12 15 14 15 14 11 9 8 7 7 8 9 9 9 7 9 11 14 19 20 20 20 20 20 20 21
44 44 44 45 40 39 35 41 39 33 26 21 21 24 22 18 15 15 21 17 16 14 11 9 8 8 7 8 13 12 11 14 15 17 19 21 22 21 21 22 22 22 23
45 45 53 46 41 42 44 42 40 34 27 22 21 22 24 22 25 28 18 17 13 11 6 10 9 7 13 13 14 14 15 18 17 20 20 20 21 21 22 24 24 24 25
46 47 55 50 43 44 43 47 43 36 33 25 25 25 26 28 24 18 17 15 16 15 13 13 12 15 16 16 16 15 16 18 19 21 22 23 26 27 28 27 29 30 29
47 45 53 58 57 47 47 45 42 36 34 25 26 28 26 23 22 19 18 18 17 16 16 15 16 17 17 16 16 16 16 20 22 25 28 30 27 30 30 29 28 29 32
48 50 47 59 60 57 52 46 40 40 29 28 26 27 28 25 23 20 19 18 18 18 18 19 19 19 18 17 18 19 19 21 24 26 29 31 31 27 31 32 30 31 33
50 49 56 56 63 63 59 50 40 32 30 31 29 30 28 26 25 23 21 21 20 20 21 21 19 19 18 17 20 21 23 24 25 26 28 28 30 29 26 28 32 32 33
48 52 51 58 61 62 62 59 50 34 33 32 30 30 32 29 27 25 24 23 21 21 21 20 19 18 19 18 19 20 24 26 28 28 27 25 20 23 29 26 24 27 32
51 50 51 54 62 64 62 59 57 36 35 33 32 32 34 34 31 30 28 26 25 25 24 21 21 21 21 20 22 25 28 28 26 26 22 20 20 30 33 29 30 35 39
50 51 50 52 56 62 63 61 57 44 42 39 35 35 35 36 35 32 31 28 27 27 25 24 24 23 25 28 27 33 33 26 24 18 22 9 27 38 36 36 40 41 39
52 54 54 55 56 59 69 68 61 52 51 41 40 39 38 36 33 33 32 26 27 26 24 24 25 27 26 24 29 33 29 29 21 22 15 29 33 40 41 45 43 43 41
58 58 58 57 59 58 63 64 63 60 44 43 43 43 42 41 36 37 32 31 32 33 33 32 31 29 31 24 28 33 20 32 17 19 34 33 37 36 37 34 40 43 44
57 64 70 69 64 63 63 61 60 52 47 46 49 44 45 43 38 39 36 34 30 26 25 21 24 28 30 27 28 24 14 10 22 30 19 32 28 40 41 42 43 39 46
61 67 59 65 63 64 65 66 64 63 58 55 53 53 43 36 29 28 28 28 28 28 28 28 31 34 36 38 33 32 35 39 41 24 29 38 49 43 54 51 53 39 43
62 57 64 58 59 62 64 68 62 62 53 43 40 45 41 39 37 37 38 37 37 40 38 36 36 38 35 36 38 41 40 34 34 34 48 53 53 44 43 48 44 48 43
56 57 61 62 66 66 63 65 66 62 55 48 52 46 43 41 42 41 41 41 42 41 39 37 38 36 33 28 23 23 25 33 37 37 38 44 51 55 56 55 53 42 48
Wind_Direction_500mb
165 172 168 167 159 153 157 157 149 150 145 138 143 148 138 123 112 103 79 67 75 96 94 90 93 94 88 87 86 82 84 91 90 91 84 83 83 103 108 90 80 69 60
157 168 165 163 151 143 147 149 150 153 153 143 133 138 139 129 127 76 69 104 110 107 101 92 94 95 91 89 89 88 86 87 87 84 65 51 83 100 114 103 100 89 68
156 163 163 162 154 150 147 148 153 157 156 155 161 155 145 145 157 66 89 129 123 117 105 96 100 100 99 94 91 88 85 85 87 89 83 66 68 81 93 99 102 88 55
155 164 164 163 160 160 155 153 156 158 159 155 154 153 149 163 246 76 128 136 128 116 111 105 99 101 101 95 90 87 85 85 83 76 75 68 54 68 73 73 69 60 59
159 159 169 165 164 164 161 155 161 158 164 170 170 167 180 207 264 102 149 150 145 127 121 111 108 106 99 95 91 88 87 85 81 65 73 98 44 61 66 60 59 57 48
159 167 169 168 166 166 166 162 166 176 187 196 189 197 212 224 237 184 160 168 156 144 130 119 111 104 98 95 90 85 81 79 75 62 64 68 70 49 51 49 43 38 32
160 180 173 172 172 174 174 172 175 183 193 202 209 214 224 225 216 177 184 166 158 147 133 122 110 102 96 89 86 86 82 76 84 62 45 50 20 18 22 20 11 5 2
165 183 175 175 177 179 181 185 190 198 206 213 222 228 228 223 205 203 204 175 153 149 132 114 109 105 97 90 80 63 59 54 59 14 13 2 350 348 347 347 344 342 341
172 171 176 175 178 180 182 187 191 202 211 216 218 221 212 204 196 204 202 177 165 161 155 152 146 123 75 47 31 28 10 5 15 314 340 329 332 320 321 324 327 327 322
174 174 182 178 182 182 183 184 187 191 193 200 201 204 201 197 204 212 215 202 188 190 196 197 213 236 254 289 302 318 329 337 2 317 318 303 318 313 311 310 311 314 315
180 178 188 184 185 185 188 185 185 187 188 190 193 200 207 190 202 208 196 206 198 204 220 237 245 256 277 289 302 308 308 322 315 309 307 313 312 310 309 310 310 309 308
186 186 187 189 186 188 189 192 190 193 195 196 197 197 189 185 199 205 234 214 215 225 229 244 267 273 284 311 320 317 326 302 311 307 308 317 314 313 312 309 305 304 303
186 196 191 188 188 192 190 199 193 200 192 194 195 204 189 197 218 213 229 230 228 234 240 272 276 294 273 291 294 299 301 309 308 306 307 312 311 312 311 307 305 304 303
195 199 198 185 194 196 203 201 198 198 193 195 203 199 201 198 207 205 210 221 227 231 236 253 262 277 288 294 295 301 303 306 306 302 303 308 309 310 309 310 310 308 307
198 201 204 197 193 196 208 203 202 198 207 201 204 205 201 199 206 203 212 219 225 236 246 251 264 272 279 287 294 298 302 303 305 311 313 313 308 306 308 306 305 305 304
200 200 203 207 204 201 205 207 210 206 209 207 211 213 207 204 210 210 217 230 239 245 248 256 263 273 281 286 292 296 299 303 310 312 312 311 311 306 303 303 304 304 305
204 204 210 202 210 211 213 203 203 212 209 217 217 219 220 215 217 219 225 230 239 247 252 259 265 271 277 287 294 301 303 306 307 310 311 312 314 322 319 307 307 307 307
206 206 212 213 214 215 216 214 208 205 215 219 222 226 226 224 222 225 229 235 237 246 254 258 264 269 278 284 289 290 292 298 304 310 309 312 324 347 342 337 326 315 314
207 205 209 216 218 219 221 220 217 213 221 222 224 224 231 231 231 232 236 239 241 243 249 251 260 272 273 272 276 282 290 296 302 306 311 298 308 340 340 331 326 321 318
208 208 207 213 219 218 220 221 220 213 219 216 226 227 229 235 235 236 239 238 239 241 244 252 256 260 269 283 287 296 303 297 294 292 308 335 323 321 325 323 320 317 310
207 209 208 207 220 217 218 219 217 214 219 220 221 231 229 227 234 235 236 237 243 244 253 257 264 274 282 287 298 309 303 292 282 297 268 308 318 319 320 319 318 311 312
208 207 210 210 218 220 219 220 221 221 223 224 227 228 231 230 229 238 243 242 247 253 254 258 261 264 269 281 290 301 313 299 279 271 310 303 313 315 318 317 318 314 318
210 212 214 213 217 220 219 217 219 223 220 223 222 224 229 230 234 241 247 249 255 251 254 257 261 266 276 279 281 277 290 267 283 296 274 295 295 299 305 298 306 308 308
223 223 215 217 219 225 220 218 214 215 215 216 226 226 229 230 235 227 231 236 243 249 254 258 260 264 273 277 280 277 274 276 284 298 296 296 311 305 309 312 313 304 304
225 218 220 214 214 225 224 220 216 216 221 221 223 229 218 228 233 236 237 241 245 253 258 258 260 262 268 272 275 282 290 290 283 296 298 303 303 312 301 308 311 312 313
225 216 223 220 222 218 223 219 217 218 217 213 212 222 215 223 228 234 238 245 251 249 252 255 256 264 261 268 276 281 281 290 294 295 289 301 296 303 301 303 309 304 305
Wind_Speed_850mb
30 36 35 29 24 23 29 30 31 39 35 29 27 29 25 22 15 10 6 4 6 14 22 24 23 25 25 28 29 29 29 30 32 33 30 31 31 29 28 32 27 23 21
42 39 38 31 27 29 32 33 37 39 34 29 33 30 23 17 9 4 5 7 9 17 20 22 23 26 26 26 26 27 29 32 33 35 37 30 31 29 28 27 27 20 25
42 42 40 34 33 32 34 35 38 37 30 28 26 20 16 9 4 3 6 15 15 17 21 22 22 25 24 24 24 24 26 28 31 40 35 15 22 26 22 20 18 14 20
43 42 43 39 38 35 35 35 38 32 32 33 25 18 14 7 1 4 11 17 18 18 19 22 21 20 20 22 22 22 22 23 23 30 19 17 17 20 20 19 19 17 17
41 42 44 41 38 38 38 37 38 34 32 27 22 17 13 7 3 3 14 16 17 18 17 19 19 18 18 19 19 19 19 19 19 22 14 16 10 14 15 15 15 14 13
39 41 45 43 41 40 39 38 38 28 27 24 21 18 14 9 5 3 16 16 17 14 15 16 16 15 15 15 15 15 15 15 19 10 10 11 6 9 11 11 10 10 10
40 38 46 43 41 42 41 37 33 28 25 23 21 20 17 12 11 14 13 14 18 14 13 13 12 11 11 11 11 11 11 11 13 7 7 7 8 8 8 9 9 9 10
39 39 47 42 40 41 40 38 34 31 27 25 24 23 21 19 20 23 15 15 16 12 9 9 8 7 6 6 6 6 7 7 9 6 6 6 8 9 9 9 10 12 13
38 36 41 44 41 40 37 35 32 28 25 25 25 23 22 19 24 30 20 15 12 11 9 6 4 3 2 2 2 2 3 4 4 6 7 8 10 12 12 13 13 13 14
39 38 41 41 44 45 39 35 31 24 21 21 22 23 21 18 22 21 18 15 12 11 9 7 5 4 3 4 6 6 6 6 6 8 10 13 14 14 15 15 15 16 17
41 42 41 44 37 39 41 38 34 28 22 19 21 22 21 13 15 12 15 14 15 14 11 9 8 7 7 8 9 9 9 7 9 11 14 19 20 20 20 20 20 20 21
44 44 44 45 40 39 35 41 39 33 26 21 21 24 22 18 15 15 21 17 16 14 11 9 8 8 7 8 13 12 11 14 15 17 19 21 22 21 21 22 22 22 23
45 45 53 46 41 42 44 42 40 34 27 22 21 22 24 22 25 28 18 17 13 11 6 10 9 7 13 13 14 14 15 18 17 20 20 20 21 21 22 24 24 24 25
46 47 55 50 43 44 43 47 43 36 33 25 25 25 26 28 24 18 17 15 16 15 13 13 12 15 16 16 16 15 16 18 19 21 22 23 26 27 28 27 29 30 29
47 45 53 58 57 47 47 45 42 36 34 25 26 28 26 23 22 19 18 18 17 16 16 15 16 17 17 16 16 16 16 20 22 25 28 30 27 30 30 29 28 29 32
48 50 47 59 60 57 52 46 40 40 29 28 26 27 28 25 23 20 19 18 18 18 18 19 19 19 18 17 18 19 19 21 24 26 29 31 31 27 31 32 30 31 33
50 49 56 56 63 63 59 50 40 32 30 31 29 30 28 26 25 23 21 21 20 20 21 21 19 19 18 17 20 21 23 24 25 26 28 28 30 29 26 28 32 32 33
48 52 51 58 61 62 62 59 50 34 33 32 30 30 32 29 27 25 24 23 21 21 21 20 19 18 19 18 19 20 24 26 28 28 27 25 20 23 29 26 24 27 32
51 50 51 54 62 64 62 59 57 36 35 33 32 32 34 34 31 30 28 26 25 25 24 21 21 21 21 20 22 25 28 28 26 26 22 20 20 30 33 29 30 35 39
50 51 50 52 56 62 63 61 57 44 42 39 35 35 35 36 35 32 31 28 27 27 25 24 24 23 25 28 27 33 33 26 24 18 22 9 27 38 36 36 40 41 39
52 54 54 55 56 59 69 68 61 52 51 41 40 39 38 36 33 33 32 26 27 26 24 24 25 27 26 24 29 33 29 29 21 22 15 29 33 40 41 45 43 43 41
58 58 58 57 59 58 63 64 63 60 44 43 43 43 42 41 36 37 32 31 32 33 33 32 31 29 31 24 28 33 20 32 17 19 34 33 37 36 37 34 40 43 44
57 64 70 69 64 63 63 61 60 52 47 46 49 44 45 43 38 39 36 34 30 26 25 21 24 28 30 27 28 24 14 10 22 30 19 32 28 40 41 42 43 39 46
61 67 59 65 63 64 65 66 64 63 58 55 53 53 43 36 29 28 28 28 28 28 28 28 31 34 36 38 33 32 35 39 41 24 29 38 49 43 54 51 53 39 43
62 57 64 58 59 62 64 68 62 62 53 43 40 45 41 39 37 37 38 37 37 40 38 36 36 38 35 36 38 41 40 34 34 34 48 53 53 44 43 48 44 48 43
56 57 61 62 66 66 63 65 66 62 55 48 52 46 43 41 42 41 41 41 42 41 39 37 38 36 33 28 23 23 25 33 37 37 38 44 51 55 56 55 53 42 48
Wind_Direction_850mb
165 172 168 167 159 153 157 157 149 150 145 138 143 148 138 123 112 103 79 67 75 96 94 90 93 94 88 87 86 82 84 91 90 91 84 83 83 103 108 90 80 69 60
157 168 165 163 151 143 147 149 150 153 153 143 133 138 139 129 127 76 69 104 110 107 101 92 94 95 91 89 89 88 86 87 87 84 65 51 83 100 114 103 100 89 68
156 163 163 162 154 150 147 148 153 157 156 155 161 155 145 145 157 66 89 129 123 117 105 96 100 100 99 94 91 88 85 85 87 89 83 66 68 81 93 99 102 88 55
155 164 164 163 160 160 155 153 156 158 159 155 154 153 149 163 246 76 128 136 128 116 111 105 99 101 101 95 90 87 85 85 83 76 75 68 54 68 73 73 69 60 59
159 159 169 165 164 164 161 155 161 158 164 170 170 167 180 207 264 102 149 150 145 127 121 111 108 106 99 95 91 88 87 85 81 65 73 98 44 61 66 60 59 57 48
159 167 169 168 166 166 166 162 166 176 187 196 189 197 212 224 237 184 160 168 156 144 130 119 111 104 98 95 90 85 81 79 75 62 64 68 70 49 51 49 43 38 32
160 180 173 172 172 174 174 172 175 183 193 202 209 214 224 225 216 177 184 166 158 147 133 122 110 102 96 89 86 86 82 76 84 62 45 50 20 18 22 20 11 5 2
165 183 175 175 177 179 181 185 190 198 206 213 222 228 228 223 205 203 204 175 153 149 132 114 109 105 97 90 80 63 59 54 59 14 13 2 350 348 347 347 344 342 341
172 171 176 175 178 180 182 187 191 202 211 216 218 221 212 204 196 204 202 177 165 161 155 152 146 123 75 47 31 28 10 5 15 314 340 329 332 320 321 324 327 327 322
174 174 182 178 182 182 183 184 187 191 193 200 201 204 201 197 204 212 215 202 188 190 196 197 213 236 254 289 302 318 329 337 2 317 318 303 318 313 311 310 311 314 315
180 178 188 184 185 185 188 185 185 187 188 190 193 200 207 190 202 208 196 206 198 204 220 237 245 256 277 289 302 308 308 322 315 309 307 313 312 310 309 310 310 309 308
186 186 187 189 186 188 189 192 190 193 195 196 197 197 189 185 199 205 234 214 215 225 229 244 267 273 284 311 320 317 326 302 311 307 308 317 314 313 312 309 305 304 303
186 196 191 188 188 192 190 199 193 200 192 194 195 204 189 197 218 213 229 230 228 234 240 272 276 294 273 291 294 299 301 309 308 306 307 312 311 312 311 307 305 304 303
195 199 198 185 194 196 203 201 198 198 193 195 203 199 201 198 207 205 210 221 227 231 236 253 262 277 288 294 295 301 303 306 306 302 303 308 309 310 309 310 310 308 307
198 201 204 197 193 196 208 203 202 198 207 201 204 205 201 199 206 203 212 219 225 236 246 251 264 272 279 287 294 298 302 303 305 311 313 313 308 306 308 306 305 305 304
200 200 203 207 204 201 205 207 210 206 209 207 211 213 207 204 210 210 217 230 239 245 248 256 263 273 281 286 292 296 299 303 310 312 312 311 311 306 303 303 304 304 305
204 204 210 202 210 211 213 203 203 212 209 217 217 219 220 215 217 219 225 230 239 247 252 259 265 271 277 287 294 301 303 306 307 310 311 312 314 322 319 307 307 307 307
206 206 212 213 214 215 216 214 208 205 215 219 222 226 226 224 222 225 229 235 237 246 254 258 264 269 278 284 289 290 292 298 304 310 309 312 324 347 342 337 326 315 314
207 205 209 216 218 219 221 220 217 213 221 222 224 224 231 231 231 232 236 239 241 243 249 251 260 272 273 272 276 282 290 296 302 306 311 298 308 340 340 331 326 321 318
208 208 207 213 219 218 220 221 220 213 219 216 226 227 229 235 235 236 239 238 239 241 244 252 256 260 269 283 287 296 303 297 294 292 308 335 323 321 325 323 320 317 310
207 209 208 207 220 217 218 219 217 214 219 220 221 231 229 227 234 235 236 237 243 244 253 257 264 274 282 287 298 309 303 292 282 297 268 308 318 319 320 319 318 311 312
208 207 210 210 218 220 219 220 221 221 223 224 227 228 231 230 229 238 243 242 247 253 254 258 261 264 269 281 290 301 313 299 279 271 310 303 313 315 318 317 318 314 318
210 212 214 213 217 220 219 217 219 223 220 223 222 224 229 230 234 241 247 249 255 251 254 257 261 266 276 279 281 277 290 267 283 296 274 295 295 299 305 298 306 308 308
223 223 215 217 219 225 220 218 214 215 215 216 226 226 229 230 235 227 231 236 243 249 254 258 260 264 273 277 280 277 274 276 284 298 296 296 311 305 309 312 313 304 304
225 218 220 214 214 225 224 220 216 216 221 221 223 229 218 228 233 236 237 241 245 253 258 258 260 262 268 272 275 282 290 290 283 296 298 303 303 312 301 308 311 312 313
225 216 223 220 222 218 223 219 217 218 217 213 212 222 215 223 228 234 238 245 251 249 252 255 256 264 261 268 276 281 281 290 294 295 289 301 296 303 301 303 309 304 305